www.pogodaiklimat.ru

Погода и климат >> Архив погоды >> Финляндия >> Аэропорт Куусамо


ПОГОДА в Аэропорту Куусамо

  • Прогноз погоды в Аэропорту Куусамо
  • Монитор погоды в Аэропорту Куусамо

АРХИВ ПОГОДЫ в Аэропорту Куусамо

Время (UTC), дата Ветер
(напр.,м/с)
 
Видим.   Явления Облачность Т
(С)
Тd
(С)
f
(%)
Тe
(С)
Тes
(С)
Комфортность P
(гПа)
Po
(гПа)
Тmin
(С)
Tmax
(С)
R
(мм)
R24
(мм)
S
(см)
16 11.09 ЮВ 5 30 км 6/6
[]
+18.5 +14.3 77 +19 +19 1010.5 979.5
17 11.09 ЮВ 5 35 км 5/4 600 м
[]
+18.0 +13.6 75 +18 +18 1009.8 978.7
18 11.09 Ю 5 50 км 9/3 600 м
[]
+15.2 +10.6 74 +14 +14 1010.3 978.9 +13.5 +20.1
19 11.09 Ю 3 45 км 8/5 600 м
[]
+14.8 +11.2 79 +14 +14 1010.1 978.7
20 11.09 Ю 5 45 км в посл. час дождь 10/0 1000 м
[]
+14.5 +11.5 82 +13 +13 1009.7 978.3
21 11.09 Ю 5 30 км слаб. ливневой дождь 9/9 600 м
[]
+14.2 +12.4 89 +12 +12 1009.0 977.5
22 11.09 Ю 5 50 км в посл. час дождь 9/5 1500 м
[]
+13.9 +11.3 84 +12 +12 1008.5 977.0
23 11.09 Ю 5 20 км слаб. дождь 9/9 600 м
[]
+13.0 +11.3 89 +11 +11 1008.0 976.5
00 12.09 Ю 5 50 км в посл. час дождь 10/10 1000 м
[]
+12.9 +11.0 88 +11 +11 1007.4 975.9
01 12.09 ЮВ 4 50 км 10/10 300 м
[]
+12.5 +11.1 91 +10 +10 1007.0 975.4
02 12.09 ЮВ 5 50 км 10/10 200 м
[]
+12.3 +11.2 93 +10 +10 1006.4 974.9
03 12.09 ЮВ 4 10 км слаб. ливневой дождь 10/10 200 м
[]
+12.1 +11.2 94 +10 +10 1005.5 974.0
04 12.09 ЮВ 4 30 км в посл. час дождь 10/10 100 м
[]
+12.0 +11.5 97 +10 +10 1005.0 973.5
05 12.09 Ю 3 5000 м ливневой дождь 10/0 100 м
[]
+12.5 +11.9 96 +11 +11 1004.5 973.0
06 12.09 Ю 4 4900 м слаб. морось 10/10 100 м
[]
+12.6 +12.4 99 +11 +11 1004.2 972.8 +11.9 +15.2
07 12.09 ЮЗ 4 19 км в посл. час осадки 10/10 200 м
[]
+13.0 +12.0 94 +11 +11 1004.2 972.8
08 12.09 ЮЗ 5 19 км слаб. ливневой дождь 9/9 100 м
[]
+13.3 +12.2 93 +11 +11 1004.3 972.9
09 12.09 ЮЗ 5 40 км слаб. ливневой дождь 9/9 200 м
[]
+13.7 +12.0 89 +12 +12 1004.1 972.7
10 12.09 ЮЗ 7 50 км в посл. час дождь 8/8 300 м
[]
+14.2 +11.0 81 +12 +12 1004.2 972.9
11 12.09 ЮЗ 6 50 км 8/4 600 м
[]
+14.1 +10.5 79 +12 +13 1004.3 972.9
12 12.09 Ю 7 45 км 10/10 300 м
[]
+13.7 +10.3 80 +11 +11 1003.6 972.3
13 12.09 Ю 6 8000 м слаб. ливневой дождь 10/10 300 м
[]
+12.7 +11.3 91 +10 +10 1003.1 971.7
14 12.09 Ю 6 10 км слаб. дождь 10/10 200 м
[]
+12.6 +11.5 93 +10 +10 1002.3 970.9
15 12.09 Ю 6 24 км слаб. дождь 10/10 200 м
[]
+12.6 +11.8 95 +10 +10 1001.4 970.0
16 12.09 Ю 6 6000 м морось 10/10 100 м
[]
+12.5 +12.0 97 +10 +10 1000.8 969.4
17 12.09 Ю 6 11 км сильн. ливневой дождь 10/0 100 м
[]
+12.4 +12.1 98 +10 +10 1000.4 969.0
18 12.09 З 3 20 км дождь 10/10 200 м
[]
+12.2 +11.3 94 +11 +11 1000.4 969.0 +12.2 +14.7
19 12.09 ЮЗ 3 50 км в посл. час дождь 10/10 300 м
[]
+11.8 +10.9 94 +10 +10 1000.4 968.9
20 12.09 ЮЗ 4 24 км 10/10 200 м
[]
+11.7 +10.8 94 +9 +9 1000.2 968.8
21 12.09 ЮЗ 5 50 км 9/9 200 м
[]
+11.5 +10.4 93 +9 +9 1000.3 968.8
22 12.09 ЮЗ 4 50 км 9/9 300 м
[]
+11.3 +10.3 94 +9 +9 1000.2 968.7
23 12.09 ЮЗ 4 50 км 9/9 200 м
[]
+11.2 +10.1 93 +9 +9 1000.2 968.7
00 13.09 ЮЗ 4 50 км 10/10 300 м
[]
+11.0 +9.6 91 +9 +9 1000.3 968.8
01 13.09 ЮЗ 4 50 км 9/9 200 м
[]
+10.7 +9.6 93 +8 +8 1000.1 968.6
02 13.09 ЮЗ 4 >70 км 9/9 300 м
[]
+10.5 +9.3 92 +8 +8 1000.2 968.6
03 13.09 ЮЗ 4 50 км 9/9 200 м
[]
+10.2 +9.3 94 +7 +7 1000.0 968.4
04 13.09 ЮЗ 4 50 км 9/9 300 м
[]
+10.3 +9.0 92 +8 +8 999.9 968.3
05 13.09 ЮЗ 4 50 км 9/9 300 м
[]
+10.3 +8.7 90 +8 +8 999.9 968.3
06 13.09 ЮЗ 4 50 км 9/8 300 м
[]
+10.7 +8.6 87 +8 +8 999.7 968.2 +10.2 +12.2
07 13.09 ЮЗ 5 >70 км 10/0 300 м
[]
+10.8 +8.4 85 +8 +8 999.7 968.2
08 13.09 ЮЗ 5 50 км 9/9 300 м
[]
+11.0 +8.2 83 +8 +8 999.6 968.1
09 13.09 ЮЗ 4 40 км слаб. дождь 10/10 300 м
[]
+10.5 +8.8 89 +8 +8 999.8 968.2
10 13.09 ЮЗ 4 >70 км слаб. ливневой дождь 10/10 300 м
[]
+10.5 +8.9 90 +8 +8 999.8 968.2
11 13.09 ЮЗ 3 50 км в посл. час дождь 9/9 300 м
[]
+11.1 +8.3 83 +9 +10 999.6 968.1
12 13.09 З 2 45 км слаб. ливневой дождь 10/10 1000 м
[]
+8.8 +6.5 85 +7 +7 1000.2 968.5
13 13.09 ЮЗ 2 50 км в посл. час дождь 9/9 2000 м
[]
+10.3 +8.3 87 +9 +9 1000.1 968.5
14 13.09 З 3 50 км слаб. ливневой дождь 4/1 1000 м
[]
+10.9 +6.9 76 +9 +10 1000.1 968.6
15 13.09 ЮЗ 4 50 км 3/3 1000 м
[]
+11.2 +6.1 71 +9 +9 1000.0 968.5
16 13.09 З 4 50 км 8/8 1000 м
[]
+10.4 +5.4 71 +8 +8 1000.3 968.7
17 13.09 З 4 50 км 5/5 600 м
[]
+8.8 +5.2 78 +6 +6 1000.8 969.0
18 13.09 З 3 50 км в посл. час дождь 1/1 1000 м
[]
+7.1 +5.6 90 +4 +4 1001.1 969.1 +7.1 +11.5
19 13.09 З 2 >70 км ясно +6.2 +5.0 92 +4 +4 1001.2 969.1
20 13.09 ЮЗ 3 50 км ясно +6.1 +5.2 94 +3 +3 1000.9 968.8
21 13.09 ЮЗ 1 50 км 1/1 300 м
[]
+4.6 +4.3 98 +3 +3 1001.1 968.9
22 13.09 СЗ 1 50 км 9/9 1000 м
[]
+4.0 +3.9 99 +2 +2 1001.1 968.7
23 13.09 З 2 22 км 10/10 200 м
[]
+5.8 +5.5 98 +3 +3 1000.8 968.7
00 14.09 СЗ 3 25 км слаб. ливневой дождь 10/10 200 м
[]
+5.9 +5.4 97 +2 +2 1001.1 969.0
01 14.09 СЗ 5 29 км дождь 10/10 200 м
[]
+4.4 +3.5 94 -1 -1 1001.6 969.3
02 14.09 С 4 24 км дождь 10/10 300 м
[]
+4.5 +3.7 95 0 0 1002.1 969.7
03 14.09 С 7 17 км дождь 10/10 300 м
[]
+4.7 +3.5 92 -1 -1 1002.9 970.6
04 14.09 С 6 15 км слаб. дождь 10/10 200 м
[]
+4.1 +2.9 92 -1 -1 1003.8 971.4
05 14.09 С 4 17 км слаб. дождь 10/10 1000 м
[]
+4.0 +3.3 95 -1 -1 1004.3 971.9
06 14.09 СЗ 4 35 км слаб. морось 10/10 200 м
[]
+5.1 +4.2 94 +1 +1 1004.5 972.2 +3.9 +7.1
07 14.09 С 5 15 км слаб. дождь 10/0 300 м
[]
+5.4 +4.4 93 +1 +1 1004.9 972.6
08 14.09 С 4 50 км в посл. час дождь 10/10 300 м
[]
+5.6 +4.2 91 +2 +2 1005.6 973.3
09 14.09 СЗ 5 50 км 10/10 300 м
[]
+5.9 +4.1 88 +1 +1 1006.4 974.1
10 14.09 СЗ 7 50 км 9/6 300 м
[]
+6.6 +3.7 82 +2 +2 1006.7 974.5
11 14.09 СЗ 5 50 км 9/9 300 м
[]
+7.4 +3.2 75 +4 +4 1007.2 975.1
12 14.09 СЗ 7 50 км 9/8 600 м
[]
+8.4 +1.9 64 +4 +4 1007.3 975.3
13 14.09 С 5 >70 км 9/5 600 м
[]
+8.5 +1.5 61 +5 +6 1007.9 975.8
14 14.09 СЗ 5 50 км ясно +8.5 +1.0 59 +5 +6 1008.3 976.2
15 14.09 СЗ 4 50 км ясно +8.1 +0.5 59 +5 +6 1008.5 976.4
16 14.09 С 4 50 км ясно +7.2 +0.9 64 +4 +4 1008.7 976.5
17 14.09 СЗ 2 >70 км ясно +5.3 +1.2 75 +3 +3 1009.0 976.5
18 14.09 СЗ 2 50 км ясно +2.9 +1.4 90 -0 -0 1009.4 976.6 +2.9 +9.1
19 14.09 СЗ 2 50 км ясно +3.8 +1.7 86 +1 +1 1009.1 976.5
20 14.09 штиль 0 >70 км ясно +1.0 +0.4 96 -0 -0 1009.1 976.1
21 14.09 штиль 0 50 км 3/3 50 м
[]
+0.9 +0.7 99 -1 -1 1008.8 975.8
22 14.09 штиль 0 50 км 1/1 50 м
[]
-0.6 -1.2 96 -2 -2 1009.1 976.0
23 14.09 СВ 1 50 км ясно -0.6 -0.9 98 -3 -3 1008.3 975.2
00 15.09 штиль 0 <100 м туман ?/? -0.7 -0.7 100 -2 -2 1008.1 975.0
01 15.09 СВ 1 <100 м туман ?/? -0.7 -0.7 100 -3 -3 1007.7 974.6
02 15.09 В 1 <100 м туман ?/? -1.7 -1.7 100 -4 -4 1007.1 973.9
03 15.09 В 1 <100 м туман ?/? -0.5 -0.5 100 -3 -3 1006.1 973.1
04 15.09 В 1 <100 м туман ?/? -0.4 -0.4 100 -3 -3 1005.3 972.3
05 15.09 В 1 100 м туман ?/? 0.0 0.0 100 -2 -2 1004.3 971.4
06 15.09 В 1 50 км в посл. час туман 4/4 <50 м
[]
+2.4 +2.4 100 0 +1 1003.0 970.4 -1.9 +3.8
07 15.09 В 1 >70 км ясно +3.8 +3.7 99 +2 +4 1002.3 969.9
08 15.09 ЮВ 3 50 км 3/3 200 м
[]
+6.3 +3.8 84 +3 +5 1001.0 969.0
09 15.09 ЮВ 5 50 км 4/4 600 м
[]
+7.7 +2.9 72 +4 +5 999.6 967.8
10 15.09 ЮВ 5 50 км 8/8 600 м
[]
+7.7 +0.6 61 +4 +5 998.8 966.9
11 15.09 ЮВ 4 50 км 9/9 600 м
[]
+8.2 +1.3 62 +5 +6 997.9 966.1
12 15.09 В 4 50 км 6/6 600 м
[]
+8.1 +1.3 62 +5 +6 996.8 965.0
13 15.09 В 5 >70 км 9/4 1000 м
[]
+8.3 +1.4 62 +5 +5 996.1 964.4
14 15.09 В 4 >70 км 9/1 1000 м
[]
+8.5 +0.6 58 +6 +6 995.3 963.7
15 15.09 В 4 50 км 9/3 1000 м
[]
+7.2 +1.5 67 +4 +4 994.7 962.9
16 15.09 В 4 50 км 9/9
[]
+6.7 +1.1 67 +3 +3 994.3 962.5
17 15.09 В 3 >70 км 6/0
[]
+5.6 +0.3 69 +3 +3 993.9 961.9
18 15.09 СВ 2 50 км ясно +4.4 +1.0 79 +2 +2 993.5 961.4 +2.4 +8.8
19 15.09 В 2 50 км ясно +4.2 +1.4 82 +1 +1 993.0 961.0
20 15.09 СВ 2 50 км ясно +3.7 +0.9 82 +1 +1 992.8 960.7
21 15.09 СВ 2 50 км ясно +2.6 +0.3 85 -1 -1 992.6 960.4
22 15.09 С 2 50 км ясно +1.9 +0.3 89 -1 -1 992.6 960.3
23 15.09 С 3 50 км 8/8 300 м
[]
+2.0 +0.5 90 -2 -2 992.6 960.3
00 16.09 СВ 2 50 км 10/10 300 м
[]
+3.0 +1.2 88 -0 -0 992.2 960.0
01 16.09 СВ 3 65 км 10/0 300 м
[]
+3.2 +1.4 88 -1 -1 991.9 959.8
02 16.09 СВ 3 50 км 10/10 200 м
[]
+3.2 +1.4 88 -1 -1 991.8 959.6
03 16.09 С 3 30 км 10/10 200 м
[]
+3.0 +1.6 91 -1 -1 991.6 959.5
04 16.09 С 3 8000 м дымка 10/10 200 м
[]
+2.8 +2.1 95 -1 -1 991.6 959.4
05 16.09 С 3 5000 м дымка 10/10 100 м
[]
+3.1 +2.6 97 -1 -1 991.3 959.2
06 16.09 С 3 13 км слаб. дождь 10/10 100 м
[]
+3.6 +3.2 97 -1 -1 991.4 959.3 +1.6 +4.4
07 16.09 С 3 50 км слаб. дождь 10/10 100 м
[]
+4.1 +3.5 96 0 0 991.6 959.6
08 16.09 С 3 35 км слаб. ливневой дождь 10/10 200 м
[]
+4.9 +3.9 93 +1 +1 991.7 959.7
09 16.09 С 3 45 км слаб. дождь 10/10 200 м
[]
+6.3 +5.1 92 +3 +3 991.9 960.1
10 16.09 С 3-6
{6}
26 км слаб. дождь 10/0 200 м
[]
+6.5 +5.4 93 +3 +3 992.3 960.5
11 16.09 С 3 40 км слаб. дождь 10/10 200 м
[]
+6.9 +5.6 91 +4 +4 992.5 960.8
12 16.09 С 3-5
{7}
35 км в посл. час дождь 10/10 200 м
[]
+7.4 +5.6 88 +4 +4 992.9 961.2
13 16.09 С 3 7000 м слаб. ливневой дождь 10/10 300 м
[]
+7.0 +5.9 93 +4 +4 993.3 961.6
14 16.09 С 3 24 км слаб. дождь 10/10 600 м
[]
+7.2 +5.7 90 +4 +4 993.5 961.8
15 16.09 С 4-6
{7}
35 км в посл. час дождь 10/10 1000 м
[]
+7.1 +5.3 88 +3 +3 993.9 962.2
16 16.09 С 3 45 км 10/10 600 м
[]
+7.1 +5.4 89 +4 +4 994.1 962.3
17 16.09 С 4 50 км 10/10 1000 м
[]
+6.9 +5.1 88 +3 +3 994.2 962.4
18 16.09 С 3-5
{5}
50 км 9/9 1000 м
[]
+6.2 +4.6 89 +3 +3 994.4 962.6 +3.6 +7.5
19 16.09 С 3-5
{5}
>70 км 9/0 1000 м
[]
+5.9 +4.3 89 +3 +3 994.6 962.7
20 16.09 С 3-5
{5}
>70 км 10/0 1000 м
[]
+5.7 +4.2 90 +2 +2 994.8 962.9
21 16.09 С 3-4
{5}
50 км 9/5 1000 м
[]
+5.6 +4.2 91 +2 +2 995.2 963.2
22 16.09 С 3 50 км 9/9 600 м
[]
+5.7 +4.3 91 +2 +2 995.3 963.4
23 16.09 С 3-4
{5}
>70 км 10/0 1500 м
[]
+5.8 +4.4 91 +2 +2 995.6 963.6
00 17.09 С 3-4
{4}
50 км 10/10 600 м
[]
+5.9 +4.5 91 +3 +3 995.9 964.0
01 17.09 С 2-4
{4}
>70 км 10/6 300 м
[]
+5.7 +4.4 91 +3 +3 996.3 964.3
02 17.09 С 2-3
{5}
>70 км 9/0 1000 м
[]
+5.4 +4.1 91 +3 +3 996.6 964.6
03 17.09 С 2 50 км 10/10 300 м
[]
+5.2 +3.8 91 +3 +3 996.8 964.8
04 17.09 СВ 2 50 км 10/8 600 м
[]
+5.0 +4.0 93 +2 +2 997.0 964.9
05 17.09 СВ 2 50 км 10/10 300 м
[]
+5.4 +3.9 90 +3 +3 997.2 965.2
06 17.09 СВ 3-6
{6}
40 км 10/10 300 м
[]
+5.6 +3.5 86 +2 +2 997.6 965.5 +5.0 +6.2
07 17.09 СВ 4-7
{7}
9000 м слаб. дождь 10/10 200 м
[]
+5.5 +3.8 89 +1 +1 997.9 965.8
08 17.09 В 2-2
{6}
26 км слаб. ливневой дождь 10/0 300 м
[]
+5.2 +3.6 89 +3 +3 998.5 966.4
09 17.09 СВ 4-7
{7}
50 км в посл. час дождь 9/9 300 м
[]
+6.5 +3.3 80 +3 +3 998.9 966.9
10 17.09 В 3 50 км 9/9 300 м
[]
+6.8 +2.6 75 +4 +4 999.2 967.2
11 17.09 СВ 4 50 км в посл. час дождь 9/9 600 м
[]
+6.4 +1.6 71 +3 +3 999.6 967.6
12 17.09 С 4-6
{9}
50 км в посл. час дождь 9/9 1000 м
[]
+6.6 +0.1 63 +3 +3 1000.1 968.1
13 17.09 С 3 50 км 6/6 600 м
[]
+7.0 +1.1 66 +4 +5 1000.2 968.2
14 17.09 С 4 35 км слаб. ливневой дождь 9/9 600 м
[]
+5.2 +1.2 75 +1 +1 1001.0 968.8
15 17.09 СВ 2-4
{7}
50 км 10/10 1000 м
[]
+5.9 +0.8 70 +4 +4 1001.4 969.2
16 17.09 СВ 3 50 км 9/9 1500 м
[]
+5.4 +0.8 72 +2 +2 1001.7 969.5
17 17.09 С 2-3
{3}
65 км 8/0 1500 м
[]
+4.3 +0.6 77 +2 +2 1002.2 969.8
18 17.09 С 2-4
{5}
50 км 5/5 1500 м
[]
+3.2 -0.2 78 0 0 1002.5 970.1 +3.2 +7.7
19 17.09 С 2 50 км 5/5 1500 м
[]
+2.9 -0.5 78 0 0 1002.9 970.4
20 17.09 С 2 50 км ясно +2.2 -0.8 81 -1 -1 1003.4 970.8
21 17.09 С 2-4
{5}
50 км ясно +1.8 -1.2 80 -1 -1 1004.1 971.4
22 17.09 С 2 50 км ясно +1.3 -1.3 83 -2 -2 1004.6 971.8
23 17.09 СЗ 1 50 км 1/0
[]
0.0 -1.3 91 -2 -2 1005.1 972.1
00 18.09 С 1-2
{3}
50 км ясно -0.4 -1.4 93 -3 -3 1005.5 972.6
01 18.09 С 1-2
{2}
65 км 4/0
[]
-0.8 -1.9 92 -3 -3 1005.7 972.6
02 18.09 СЗ 2 50 км 9/9
[]
-1.1 -1.9 94 -5 -5 1006.1 973.0
03 18.09 СЗ 2-2
{3}
50 км ясно -1.1 -1.7 96 -5 -5 1006.5 973.3
04 18.09 З 2 50 км 9/1
[]
-1.0 -1.7 95 -5 -5 1006.7 973.6
05 18.09 СЗ 2-3
{3}
45 км ясно -1.0 -1.5 96 -5 -5 1007.1 973.9
06 18.09 С 3-6
{6}
50 км ясно +1.4 -0.6 87 -3 -2 1007.1 974.3 -1.8 +3.3
07 18.09 С 3-5
{7}
60 км ясно +2.9 -0.5 78 -1 +1 1007.3 974.7
08 18.09 С 5-7
{7}
65 км 1/0 600 м
[]
+3.5 -1.8 68 -1 0 1007.5 974.9
09 18.09 С 4-6
{7}
50 км 1/1 600 м
[]
+4.6 -2.0 62 +1 +3 1007.8 975.3
10 18.09 С 5 50 км 1/1 600 м
[]
+5.3 -3.0 55 +1 +3 1007.9 975.5
11 18.09 С 5-7
{7}
>70 км 3/0 1000 м
[]
+5.8 -2.5 55 +2 +4 1008.0 975.7
12 18.09 С 4-6
{8}
50 км 6/6 1000 м
[]
+5.7 -3.4 52 +2 +3 1008.3 975.9
13 18.09 СЗ 5 50 км 5/5 1000 м
[]
+6.3 -2.9 52 +3 +3 1008.3 976.0
14 18.09 С 4 50 км 3/3 1000 м
[]
+5.3 -3.3 54 +2 +2 1008.6 976.2
15 18.09 С 3-5
{7}
50 км 1/1 1000 м
[]
+5.4 -3.6 52 +3 +3 1008.7 976.3
16 18.09 СЗ 2 50 км ясно +4.4 -3.4 57 +2 +2 1008.9 976.4

 

Местоположение метеостанции Аэропорт Куусамо (Финляндия): широта 66.00 долгота 29.22 высота над уровнем моря 264 м.

В архиве по умолчанию представлена погода в Аэропорту Куусамо за последнюю неделю. Архивные данные за месяц целиком и за предыдущие месяцы, начиная с января 2011 года, Вы можете получить, выбрав интересующий диапазон дат из раскрывающегося списка и нажав кнопку "Ввод!".


*Определитесь, кто Вы:
робот инопланетянин человек

Внимание! Время в таблицах - всемирное. Для получения местного времени необходимо прибавить поправку, которая равна 1 ч.

Смотрите также архив погоды в соседних городах и на ближайших метеорологических станциях:

Погода в Куусамо Рукатунтури (Финляндия) (19 км)
Погода в Куусамо Рука (Финляндия) (19 км)
Погода в Оуланке (Финляндия) (37 км)
Погода в Куусамо Киутаконгас (Финляндия) (41 км)
Погода в Тайвалкоски (Финляндия) (66 км)
Погода в Зашейке (Карелия, Россия) (90 км)
Погода в Салле (Финляндия) (96 км)
Погода в Алакуртти (Мурманская область, Россия) (117 км)
Погода в Суомуссалми (Финляндия) (121 км)
Погода на Аэродроме Кемиярви (Финляндия) (122 км)

Пояснения к столбцам:

Ветер - указаны скорость ветра в м/с - средняя за 10 мин, порывы в срок и между сроками (в фигурных скобках) и направление, откуда дует ветер: С - северный, СВ - северо-восточный, В - восточный, ЮВ - юго-восточный, Ю - южный, ЮЗ - юго-западный, З - западный, СЗ - северо-западный.
Видимость - горизонтальная дальность видимости в метрах или километрах. При видимости от 1 до 10 км при отсутствии осадков обычно наблюдается дымка, при ухудшении видимости до 1 км и менее - туман. В сухую погоду видимость может ухудшаться дымом, пылью или мглою.
Явления - указаны атмосферные явления, наблюдавшиеся в срок или в последний час перед сроком; фигурными скобками обозначены явления, наблюдавшиеся между сроками (за 1-3 часа до срока); квадратными скобками обозначены град или гололедные отложения с указанием их диаметра в мм.
Облачность - указаны через наклонную черту общая и нижняя облачность в баллах и высота нижней границы облаков в метрах; квадратными скобками обозначены формы облаков: Ci - перистые, Cs - перисто-слоистые, Cc - перисто-кучевые, Ac - высококучевые, As - высокослоистые, Sc - слоисто-кучевые, Ns - слоисто-дождевые, Cu - кучевые, Cb - кучево-дождевые. Подробнее классификацию облаков см. в Атласе облаков (PDF).
T - Температура воздуха - температура, измеренная на высоте 2 м над землей.
Td - Температура точки росы - температура, при понижении до которой содержащийся в воздухе водяной пар достигнет насыщения.
f - Относительная влажность воздуха - влажноcть воздуха, измеренная на высоте 2 м над землей.
Te - Эффективная температура - температура, которую ощущает одетый по сезону человек в тени. Характеристика душности погоды. При расчете учитывается влияние влажности воздуха и скорости ветра на теплоощущения человека.
Tes - Эффективная температура на солнце - температура, которую ощущает человек, с поправкой на солнечный нагрев. Характеристика знойности погоды. Зависит от высоты солнца над горизонтом, облачности и скорости ветра. Ночью, в пасмурную погоду, а также при ветре 12 м/с и более поправка равна нулю.
P - Атмосферное давление - приведенное к уровню моря атмосферное давление.
Po - Атмосферное давление - измеренное на уровне метеостанции атмосферное давление.
Tmin - Минимальная температура - минимум температуры воздуха на высоте 2 м над землей.
Tmax - Максимальная температура - максимум температуры воздуха на высоте 2 м над землей.
R - Количество осадков - Количество выпавших осадков за период времени, мм. При наведении курсора мыши на число - период времени, за который выпало указанное количество осадков.
R24 - Количество осадков - Количество выпавших осадков за 24 часа, мм.
S - Снежный покров - Высота снежного покрова, см. При наведении курсора мыши на число - состояние снежного покрова и степень покрытия местности в баллах.